Location: Krakow
(50.0212°N, 19.9423°E)
Time: 17:49:02
(UTC+01:00)

ARIANE 6 FM1 Upper Stage - Pass Details

Date: 13 December 2025
Orbit: 522 x 610 km, 62.0° (Epoch: 17 January)

Event Time Altitude Azimuth Distance (km) Brightness Sun altitude
Rises 05:56:30 0° 186° (S) 2,687 6.3 -14.2°
Reaches altitude 10° 05:59:05 10° 171° (S) 1,786 5.6 -13.8°
Maximum altitude 06:02:09 21° 121° (ESE) 1,217 5.4 -13.3°
Drops below altitude 10° 06:05:11 10° 71° (ENE) 1,772 6.0 -12.8°
Sets 06:07:44 0° 55° (NE) 2,660 6.6 -12.5°
